Ortonville, MN

9:31 AM CDT on June 27, 2017 (GMT -0500)
Ortonville Municipal-Martinson

Weather History for KVVV - January, 2014

Change the Weather History Date:

Sunday, January 26, 2014

  Actual Average (KAQP) Record (KAQP)
Temperature  
Mean Temperature 8 °F -  
Max Temperature 23 °F 19 °F 44 °F (2015)
Min Temperature -7 °F 3 °F -18 °F (2003)
Degree Days  
Heating Degree Days 57    
Moisture  
Dew Point 3 °F    
Average Humidity 76    
Maximum Humidity 86    
Minimum Humidity 65    
Precipitation  
Precipitation 0.01 in - - ()
Sea Level Pressure  
Sea Level Pressure 29.71 in    
Wind  
Wind Speed 17 mph (NW)    
Max Wind Speed 33 mph    
Max Gust Speed 44 mph    
Visibility 4 miles    
Events Snow    
Averages and records for this station are not official NWS values.
T = Trace of Precipitation, MM = Missing Value Source: NWS Daily Summary

Daily Weather History Graph

Daily Weather History Graph

Search for Another Location

Airport or City:

Trip Planner

Search our weather history database for the weather conditions in past years. The results will help you decide how hot, cold, wet, or windy it might be!

Date:

Astronomy

Jan. 26, 2014 Rise Set
Actual Time 7:52 AM CST 5:24 PM CST
Civil Twilight 7:20 AM CST 5:56 PM CST
Nautical Twilight 6:44 AM CST 6:32 PM CST
Astronomical Twilight 6:10 AM CST 7:07 PM CST
Moon 3:32 AM CST (1/26) 1:13 PM CST (1/26)
Length of Visible Light 10h 35m
Length of Day
9h 31m
Waning Crescent, 23% of the Moon is Illuminated
Jan 26
Waning Crescent
Jan 30
New
Feb 6
First Quarter
Feb 14
Full
Feb 22
Last Quarter

Hourly Weather History & Observations

Time (CST) Temp. Windchill Dew Point Humidity Pressure Visibility Wind Dir Wind Speed Gust Speed Precip Events Conditions
12:13 AM 14.0 °F 6.5 °F 10.4 °F 86% 29.38 in 10.0 mi SE 4.6 mph - 0.01 in   Overcast
12:34 AM 14.0 °F 6.5 °F 10.4 °F 86% 29.37 in 10.0 mi SE 4.6 mph - 0.01 in   Overcast
12:54 AM 15.8 °F - 12.2 °F 86% 29.38 in 10.0 mi Calm Calm - 0.01 in   Overcast
1:14 AM 15.8 °F - 10.4 °F 79% 29.38 in 10.0 mi Calm Calm - N/A   Overcast
1:34 AM 15.8 °F - 10.4 °F 79% 29.39 in 10.0 mi Calm Calm - N/A   Overcast
1:53 AM 15.8 °F 10.2 °F 10.4 °F 79% 29.38 in 10.0 mi West 3.5 mph - N/A   Overcast
2:14 AM 17.6 °F 3.7 °F 14.0 °F 86% 29.39 in 10.0 mi NW 13.8 mph - N/A   Mostly Cloudy
2:34 AM 19.4 °F 4.1 °F 15.8 °F 86% 29.40 in 5.0 mi NW 18.4 mph 26.5 mph N/A   Mostly Cloudy
2:53 AM 23.0 °F 5.7 °F 19.4 °F 86% 29.42 in 1.8 mi NW 28.8 mph 40.3 mph N/A Snow Light Snow
3:14 AM 23.0 °F 6.9 °F 17.6 °F 80% 29.41 in 2.0 mi NW 24.2 mph 35.7 mph N/A Snow Light Snow
3:34 AM 21.2 °F 3.5 °F 17.6 °F 86% 29.43 in 2.0 mi NNW 27.6 mph 35.7 mph N/A Snow Light Snow
3:54 AM 21.2 °F 5.2 °F 15.8 °F 80% 29.43 in 3.0 mi NW 21.9 mph 32.2 mph N/A Snow Light Snow
4:13 AM 21.2 °F 6.0 °F 15.8 °F 80% 29.45 in 7.0 mi NW 19.6 mph 26.5 mph N/A   Overcast
4:34 AM 21.2 °F 6.8 °F 15.8 °F 80% 29.45 in 10.0 mi NW 17.3 mph 27.6 mph N/A   Overcast
4:53 AM 21.2 °F 6.8 °F 15.8 °F 80% 29.45 in 10.0 mi NNW 17.3 mph 24.2 mph N/A   Overcast
5:14 AM 21.2 °F 6.8 °F 15.8 °F 80% 29.45 in 7.0 mi NNW 17.3 mph 23.0 mph N/A   Overcast
5:33 AM 23.0 °F 8.0 °F 17.6 °F 80% 29.45 in 3.0 mi NW 20.7 mph 31.1 mph N/A Snow Light Snow
5:54 AM 21.2 °F 5.6 °F 17.6 °F 86% 29.46 in 4.0 mi NW 20.7 mph 31.1 mph N/A   Overcast
6:14 AM 21.2 °F 5.2 °F 15.8 °F 80% 29.46 in 3.0 mi NW 21.9 mph 32.2 mph N/A Snow Light Snow
6:33 AM 21.2 °F 6.4 °F 15.8 °F 80% 29.47 in 7.0 mi NW 18.4 mph 25.3 mph N/A   Overcast
6:54 AM 21.2 °F 6.4 °F 14.0 °F 74% 29.48 in 5.0 mi NW 18.4 mph 26.5 mph N/A   Haze
7:14 AM 21.2 °F 7.8 °F 14.0 °F 74% 29.47 in 7.0 mi NW 15.0 mph 27.6 mph N/A   Overcast
7:33 AM 21.2 °F 9.5 °F 15.8 °F 80% 29.46 in 10.0 mi WNW 11.5 mph 18.4 mph N/A   Overcast
7:54 AM 21.2 °F 5.2 °F 14.0 °F 74% 29.46 in 10.0 mi NW 21.9 mph 26.5 mph N/A   Overcast
8:14 AM 21.2 °F 6.4 °F 12.2 °F 68% 29.46 in 10.0 mi NW 18.4 mph 24.2 mph N/A   Overcast
8:33 AM 19.4 °F 4.1 °F 12.2 °F 74% 29.46 in 10.0 mi NW 18.4 mph 25.3 mph N/A   Overcast
8:54 AM 19.4 °F 6.6 °F 12.2 °F 74% 29.47 in 10.0 mi NW 12.7 mph - N/A   Overcast
9:14 AM 19.4 °F 5.5 °F 12.2 °F 74% 29.47 in 5.0 mi NW 15.0 mph 25.3 mph N/A Snow Light Snow
9:33 AM 19.4 °F 3.2 °F 12.2 °F 74% 29.48 in 5.0 mi NW 20.7 mph 27.6 mph N/A   Haze
9:54 AM 19.4 °F 2.8 °F 12.2 °F 74% 29.50 in 0.8 mi NW 21.9 mph 28.8 mph N/A Snow Light Snow
10:13 AM 17.6 °F -1.0 °F 12.2 °F 79% 29.51 in 0.5 mi NNW 26.5 mph 35.7 mph N/A Snow Light Snow
10:34 AM 15.8 °F -1.5 °F 10.4 °F 79% 29.52 in 0.8 mi NW 20.7 mph 34.5 mph N/A Snow Light Snow
10:54 AM 15.8 °F -1.5 °F 8.6 °F 73% 29.54 in 1.2 mi NW 20.7 mph 32.2 mph N/A Snow Light Snow
11:13 AM 15.8 °F -0.2 °F 10.4 °F 79% 29.55 in 0.8 mi NW 17.3 mph 26.5 mph N/A Snow Light Snow
11:34 AM 15.8 °F -2.3 °F 8.6 °F 73% 29.56 in 1.2 mi NW 23.0 mph 27.6 mph N/A Snow Light Snow
11:54 AM 15.8 °F -0.6 °F 8.6 °F 73% 29.58 in 0.8 mi NNW 18.4 mph 27.6 mph N/A Snow Light Snow
12:13 PM 12.2 °F -8.2 °F 8.6 °F 85% 29.60 in 0.2 mi NNW 26.5 mph 31.1 mph N/A Snow Snow
12:34 PM 12.2 °F -8.2 °F 6.8 °F 79% 29.61 in 0.8 mi NNW 26.5 mph 31.1 mph N/A Snow Light Snow
12:54 PM 10.4 °F -11.4 °F 6.8 °F 85% 29.64 in 0.2 mi North 28.8 mph 34.5 mph N/A Snow Snow
1:14 PM 10.4 °F -11.7 °F 5.0 °F 79% 29.65 in 0.5 mi NNW 29.9 mph 36.8 mph N/A Snow Light Snow
1:33 PM 8.6 °F -12.3 °F 3.2 °F 79% 29.68 in 0.5 mi NNW 24.2 mph 33.4 mph N/A Snow Light Snow
1:54 PM 8.6 °F -14.5 °F 1.4 °F 73% 29.71 in 0.2 mi NNW 31.1 mph 40.3 mph N/A Snow Snow
2:14 PM 6.8 °F -14.3 °F 1.4 °F 79% 29.73 in 0.8 mi NNW 23.0 mph 33.4 mph N/A Snow Light Snow
2:34 PM 5.0 °F -18.3 °F -0.4 °F 78% 29.75 in 0.5 mi NNW 27.6 mph 34.5 mph N/A Snow Light Snow
2:54 PM 3.2 °F -20.3 °F -0.4 °F 85% 29.79 in 0.2 mi NNW 26.5 mph 38.0 mph N/A Snow Snow
3:14 PM 3.2 °F -22.5 °F -2.2 °F 78% 29.81 in 0.2 mi NNW 33.4 mph 42.6 mph N/A Snow Snow
3:34 PM 1.4 °F -23.2 °F -5.8 °F 72% 29.85 in 0.2 mi NW 27.6 mph 40.3 mph N/A Snow Light Snow
3:54 PM 1.4 °F -23.2 °F -7.6 °F 66% 29.87 in 0.2 mi NNW 27.6 mph 39.1 mph N/A Snow Light Snow
4:14 PM 1.4 °F -23.5 °F -5.8 °F 72% 29.89 in 0.5 mi NW 28.8 mph 41.4 mph N/A Snow Light Snow
4:34 PM -0.4 °F -25.2 °F -7.6 °F 72% 29.92 in 0.5 mi NW 26.5 mph 41.4 mph N/A Snow Light Snow
4:54 PM -0.4 °F -27.1 °F -7.6 °F 72% 29.94 in 0.2 mi NW 32.2 mph 43.7 mph N/A Snow Snow
5:14 PM -0.4 °F -26.0 °F -7.6 °F 72% 29.96 in 0.2 mi NNW 28.8 mph 43.7 mph N/A Snow Light Snow
5:34 PM -2.2 °F -27.1 °F -7.6 °F 78% 29.98 in 1.0 mi NW 25.3 mph 38.0 mph N/A Snow Light Snow
5:54 PM -2.2 °F -28.8 °F -7.6 °F 78% 30.00 in 1.0 mi NW 29.9 mph 42.6 mph N/A Snow Light Snow
6:14 PM -2.2 °F -25.7 °F -9.4 °F 71% 30.03 in 2.0 mi NNW 21.9 mph 34.5 mph N/A Snow Light Snow
6:33 PM -2.2 °F -26.7 °F -9.4 °F 71% 30.04 in 1.5 mi NNW 24.2 mph 40.3 mph N/A Snow Light Snow
6:54 PM -2.2 °F -27.1 °F -9.4 °F 71% 30.06 in 0.5 mi NNW 25.3 mph 39.1 mph N/A Snow Snow
7:14 PM -2.2 °F -26.7 °F -9.4 °F 71% 30.07 in 0.8 mi NW 24.2 mph 39.1 mph N/A Snow Light Snow
7:34 PM -4.0 °F -32.0 °F -11.2 °F 71% 30.09 in 0.8 mi NNW 32.2 mph 43.7 mph N/A Snow Light Snow
7:54 PM -4.0 °F -32.4 °F -11.2 °F 71% 30.10 in 1.8 mi NNW 33.4 mph 36.8 mph N/A Snow Light Snow
8:14 PM -5.8 °F -32.4 °F -14.8 °F 65% 30.11 in 3.0 mi NNW 26.5 mph 36.8 mph N/A   Haze
8:34 PM -5.8 °F -32.0 °F -14.8 °F 65% 30.13 in 2.5 mi NNW 25.3 mph 39.1 mph N/A Snow Light Snow
8:54 PM -5.8 °F -28.2 °F -14.8 °F 65% 30.15 in 10.0 mi NW 17.3 mph 26.5 mph N/A   Scattered Clouds
9:14 PM -5.8 °F -29.4 °F -14.8 °F 65% 30.16 in 7.0 mi NNW 19.6 mph 29.9 mph N/A   Scattered Clouds
9:34 PM -5.8 °F -28.8 °F -13.0 °F 71% 30.17 in 7.0 mi NNW 18.4 mph 29.9 mph N/A   Mostly Cloudy
9:54 PM -5.8 °F -34.1 °F -14.8 °F 65% 30.18 in 2.0 mi NNW 31.1 mph 39.1 mph N/A Snow Light Snow
10:14 PM -5.8 °F -32.0 °F -14.8 °F 65% 30.18 in 2.5 mi NNW 25.3 mph 39.1 mph N/A Snow Light Snow
10:34 PM -5.8 °F -32.9 °F -14.8 °F 65% 30.19 in 2.5 mi NNW 27.6 mph 39.1 mph N/A Snow Light Snow
10:54 PM -7.6 °F -35.3 °F -14.8 °F 71% 30.21 in 1.2 mi NNW 27.6 mph 41.4 mph N/A Snow Light Snow
11:14 PM -7.6 °F -32.3 °F -16.6 °F 65% 30.22 in 5.0 mi NNW 20.7 mph 31.1 mph N/A   Haze
11:34 PM -7.6 °F -32.9 °F -16.6 °F 65% 30.23 in 7.0 mi NNW 21.9 mph 35.7 mph N/A   Mostly Cloudy
11:54 PM -7.6 °F -30.5 °F -14.8 °F 71% 30.24 in 10.0 mi NNW 17.3 mph 25.3 mph N/A   Overcast